Monticello, KY

6:27 AM EDT on June 24, 2017 (GMT -0400)
Wayne County

Weather History for KEKQ - March, 2013

Change the Weather History Date:

Friday, March 29, 2013

  Actual Average Record
Temperature  
Mean Temperature 34 °F -  
Max Temperature 45 °F 65 °F 84 °F (2014)
Min Temperature 24 °F 41 °F 16 °F (1966)
Degree Days  
Heating Degree Days 30    
Moisture  
Dew Point 38 °F    
Average Humidity 92    
Maximum Humidity 100    
Minimum Humidity 79    
Precipitation  
Precipitation 0.06 in - - ()
Sea Level Pressure  
Sea Level Pressure 30.32 in    
Wind  
Wind Speed 1 mph (SSE)    
Max Wind Speed 7 mph    
Max Gust Speed -    
Visibility 8 miles    
Events Rain    
Averages and records for this station are not official NWS values.
T = Trace of Precipitation, MM = Missing Value Source: NWS Daily Summary

Daily Weather History Graph

Daily Weather History Graph

Search for Another Location

Airport or City:

Trip Planner

Search our weather history database for the weather conditions in past years. The results will help you decide how hot, cold, wet, or windy it might be!

Date:

Astronomy

Mar. 29, 2013 Rise Set
Actual Time 6:29 AM CDT 6:59 PM CDT
Civil Twilight 6:03 AM CDT 7:25 PM CDT
Nautical Twilight 5:32 AM CDT 7:56 PM CDT
Astronomical Twilight 5:01 AM CDT 8:27 PM CDT
Moon 9:53 PM CDT (3/29) 7:42 AM CDT (3/29)
Length of Visible Light 13h 22m
Length of Day
12h 30m
Waning Gibbous, 93% of the Moon is Illuminated
Mar 29
Waning Gibbous
Apr 2
Last Quarter
Apr 10
New
Apr 18
First Quarter
Apr 25
Full

Hourly Weather History & Observations

Time (CDT) Temp. Windchill Dew Point Humidity Pressure Visibility Wind Dir Wind Speed Gust Speed Precip Events Conditions
12:56 AM 25.2 °F - 24.1 °F 96% 30.38 in 10.0 mi Calm Calm - N/A   Clear
1:56 AM 24.1 °F - 22.1 °F 92% 30.37 in 10.0 mi Calm Calm - N/A   Clear
2:56 AM 25.2 °F - 23.0 °F 91% 30.36 in 10.0 mi Calm Calm - N/A   Scattered Clouds
3:56 AM 28.0 °F - 25.2 °F 89% 30.35 in 10.0 mi Calm Calm - N/A   Mostly Cloudy
4:56 AM 28.0 °F - 25.2 °F 89% 30.34 in 10.0 mi Calm Calm - N/A   Scattered Clouds
5:56 AM 30.0 °F - 27.1 °F 89% 30.35 in 10.0 mi Calm Calm - N/A   Overcast
6:56 AM 34.0 °F - 30.0 °F 85% 30.36 in 10.0 mi Calm Calm - N/A   Overcast
7:56 AM 36.9 °F - 32.0 °F 83% 30.38 in 10.0 mi Calm Calm - N/A   Scattered Clouds
8:56 AM 37.9 °F 34.4 °F 32.0 °F 79% 30.39 in 8.0 mi SSW 4.6 mph - 0.00 in Rain Light Rain
9:56 AM 39.9 °F - 36.0 °F 86% 30.40 in 4.0 mi Calm Calm - 0.00 in Rain Light Rain
10:56 AM 43.0 °F - 38.8 °F 85% 30.40 in 7.0 mi Calm Calm - 0.01 in Rain Light Rain
11:56 AM 43.0 °F - 41.9 °F 96% 30.40 in 2.5 mi Calm Calm - 0.01 in Rain Light Rain
12:19 PM 42.8 °F - 42.8 °F 100% 30.35 in 3.0 mi Calm Calm - 0.01 in Rain Light Rain
12:29 PM 42.8 °F - 42.8 °F 100% 30.34 in 2.0 mi Calm Calm - 0.02 in Rain Light Rain
12:40 PM 44.6 °F - 42.8 °F 93% 30.34 in 3.0 mi Calm Calm - 0.02 in Rain Light Rain
12:56 PM 43.9 °F - 41.0 °F 90% 30.39 in 4.0 mi Calm Calm - 0.03 in Rain Light Rain
1:04 PM 44.6 °F - 41.0 °F 87% 30.33 in 4.0 mi Calm Calm - 0.00 in Rain Light Rain
1:56 PM 45.0 °F 42.6 °F 41.9 °F 89% 30.36 in 4.0 mi SSW 4.6 mph - 0.01 in Rain Light Rain
2:30 PM 44.6 °F 42.2 °F 42.8 °F 93% 30.31 in 10.0 mi South 4.6 mph - 0.00 in   Mostly Cloudy
2:56 PM 45.0 °F 42.6 °F 41.0 °F 86% 30.35 in 10.0 mi South 4.6 mph - 0.00 in   Overcast
3:56 PM 45.0 °F 41.2 °F 43.0 °F 93% 30.32 in 10.0 mi SE 6.9 mph - N/A   Overcast
4:56 PM 45.0 °F 41.8 °F 41.9 °F 89% 30.30 in 10.0 mi ESE 5.8 mph - N/A   Mostly Cloudy
5:56 PM 45.0 °F 41.8 °F 41.9 °F 89% 30.29 in 10.0 mi SE 5.8 mph - N/A   Overcast
6:13 PM 44.6 °F - 42.8 °F 93% 30.25 in 10.0 mi Calm Calm - N/A   Overcast
6:56 PM 43.9 °F 41.3 °F 41.9 °F 93% 30.28 in 10.0 mi SE 4.6 mph - N/A   Overcast
7:56 PM 43.9 °F - 41.9 °F 93% 30.29 in 10.0 mi Calm Calm - N/A   Overcast
8:31 PM 44.6 °F - 42.8 °F 93% 30.26 in 10.0 mi Calm Calm - N/A   Overcast
8:45 PM 44.6 °F - 42.8 °F 93% 30.26 in 10.0 mi Calm Calm - N/A   Overcast
8:56 PM 43.9 °F - 41.9 °F 93% 30.30 in 10.0 mi Calm Calm - N/A   Overcast
9:13 PM 44.6 °F - 42.8 °F 93% 30.26 in 10.0 mi Calm Calm - N/A   Overcast
9:56 PM 43.9 °F - 41.9 °F 93% 30.29 in 10.0 mi Calm Calm - N/A   Overcast
10:32 PM 41.0 °F - 39.2 °F 93% 30.26 in 10.0 mi Calm Calm - N/A   Mostly Cloudy
10:56 PM 41.0 °F - 41.0 °F 100% 30.29 in 10.0 mi Calm Calm - N/A   Overcast
11:03 PM 41.0 °F - 41.0 °F 100% 30.25 in 10.0 mi Calm Calm - N/A   Overcast
11:18 PM 41.0 °F - 41.0 °F 100% 30.25 in 10.0 mi Calm Calm - N/A   Overcast
11:56 PM 41.9 °F - 41.9 °F 100% 30.27 in 10.0 mi Calm Calm - N/A   Overcast